Location: Clason Point
(40.8136°N, 73.8618°W)
Time: 10:35:10
(UTC+00:00)

Envisat - Pass Details

Date: 16 September 2019
Orbit: 764 x 766 km, 98.1° (Epoch: 23 October)

Event Time Altitude Azimuth Distance (km) Brightness Sun altitude
Rises 23:30:17 0° 180° (S) 3,218 6.1 -5.9°
Reaches altitude 10° 23:32:39 10° 186° (S) 2,296 5.5 -6.4°
Maximum altitude 23:37:33 49° 261° (W) 980 4.1 -7.3°
Drops below altitude 10° 23:42:29 10° 336° (NNW) 2,312 6.0 -8.2°
Sets 23:44:53 0° 342° (NNW) 3,242 6.7 -8.7°
